owner,sensor,date,latitude,longitude,vertical_datum,wind_speed,wind_to_direction,wind_speed_of_gust,qcFlag 
TCOON,ioos:station:TCOON:031:1,2009-02-01T00:00:00Z,28.4073,-96.7122,0.0,1.1,97.0,2.3,'11111222,11111222,11111222' 
TCOON,ioos:station:TCOON:031:1,2009-02-01T01:00:00Z,28.4073,-96.7122,0.0,1.6,71.0,2.3,'11111222,11111222,11111222' 
TCOON,ioos:station:TCOON:031:1,2009-02-01T03:00:00Z,28.4073,-96.7122,0.0,2.4,85.0,3.5,'11111222,11111222,11111222' 
TCOON,ioos:station:TCOON:031:1,2009-02-01T04:00:00Z,28.4073,-96.7122,0.0,2.0,62.0,2.7,'11111222,11111222,11111222' 
TCOON,ioos:station:TCOON:031:1,2009-02-01T05:00:00Z,28.4073,-96.7122,0.0,2.5,79.0,3.3,'11111222,11111222,11111222' 
TCOON,ioos:station:TCOON:031:1,2009-02-01T06:00:00Z,28.4073,-96.7122,0.0,2.6,86.0,3.2,'11111222,11111222,11111222' 
TCOON,ioos:station:TCOON:031:1,2009-02-01T07:00:00Z,28.4073,-96.7122,0.0,1.8,97.0,1.9,'11111222,11111222,11111222' 
TCOON,ioos:station:TCOON:031:1,2009-02-01T08:00:00Z,28.4073,-96.7122,0.0,2.2,120.0,2.7,'11111222,11111222,11111222' 
TCOON,ioos:station:TCOON:031:1,2009-02-01T09:00:00Z,28.4073,-96.7122,0.0,1.3,115.0,1.6,'11111222,11111222,11111222' 
TCOON,ioos:station:TCOON:031:1,2009-02-01T10:00:00Z,28.4073,-96.7122,0.0,0.8,116.0,1.1,'11111222,11111222,11111222' 
TCOON,ioos:station:TCOON:031:1,2009-02-01T11:00:00Z,28.4073,-96.7122,0.0,0.9,109.0,1.0,'11111222,11111222,11111222' 
TCOON,ioos:station:TCOON:031:1,2009-02-01T12:00:00Z,28.4073,-96.7122,0.0,0.2,103.0,0.4,'11111222,11111222,11111222' 
TCOON,ioos:station:TCOON:031:1,2009-02-01T13:00:00Z,28.4073,-96.7122,0.0,1.3,121.0,1.6,'11111222,11111222,11111222' 
TCOON,ioos:station:TCOON:031:1,2009-02-01T14:00:00Z,28.4073,-96.7122,0.0,1.7,119.0,1.9,'11111222,11111222,11111222' 
TCOON,ioos:station:TCOON:031:1,2009-02-01T15:00:00Z,28.4073,-96.7122,0.0,1.6,118.0,1.7,'11111222,11111222,11111222' 
TCOON,ioos:station:TCOON:031:1,2009-02-01T16:00:00Z,28.4073,-96.7122,0.0,1.7,119.0,1.8,'11111222,11111222,11111222' 
TCOON,ioos:station:TCOON:031:1,2009-02-01T17:00:00Z,28.4073,-96.7122,0.0,3.6,138.0,4.1,'11111222,11111222,11111222' 
TCOON,ioos:station:TCOON:031:1,2009-02-01T18:00:00Z,28.4073,-96.7122,0.0,4.5,146.0,4.8,'11111222,11111222,11111222' 
TCOON,ioos:station:TCOON:031:1,2009-02-01T19:00:00Z,28.4073,-96.7122,0.0,5.2,147.0,5.8,'11111222,11111222,11111222' 
TCOON,ioos:station:TCOON:031:1,2009-02-01T20:00:00Z,28.4073,-96.7122,0.0,5.2,143.0,5.8,'11111222,11111222,11111222' 
TCOON,ioos:station:TCOON:031:1,2009-02-01T21:00:00Z,28.4073,-96.7122,0.0,6.0,137.0,7.1,'11111222,11111222,11111222' 
TCOON,ioos:station:TCOON:031:1,2009-02-01T22:00:00Z,28.4073,-96.7122,0.0,5.6,139.0,6.8,'11111222,11111222,11111222' 
TCOON,ioos:station:TCOON:031:1,2009-02-01T23:00:00Z,28.4073,-96.7122,0.0,6.1,136.0,7.6,'11111222,11111222,11111222' 
TCOON,ioos:station:TCOON:031:1,2009-02-02T00:00:00Z,28.4073,-96.7122,0.0,4.7,129.0,6.4,'11111222,11111222,11111222' 
TCOON,ioos:station:TCOON:031:1,2009-02-02T01:00:00Z,28.4073,-96.7122,0.0,5.1,127.0,5.8,'11111222,11111222,11111222' 
TCOON,ioos:station:TCOON:031:1,2009-02-02T02:00:00Z,28.4073,-96.7122,0.0,5.2,130.0,5.8,'11111222,11111222,11111222' 
TCOON,ioos:station:TCOON:031:1,2009-02-02T03:00:00Z,28.4073,-96.7122,0.0,4.4,143.0,4.7,'11111222,11111222,11111222' 
TCOON,ioos:station:TCOON:031:1,2009-02-02T04:00:00Z,28.4073,-96.7122,0.0,2.9,143.0,3.3,'11111222,11111222,11111222' 
TCOON,ioos:station:TCOON:031:1,2009-02-02T05:00:00Z,28.4073,-96.7122,0.0,3.6,159.0,4.7,'11111222,11111222,11111222' 
TCOON,ioos:station:TCOON:031:1,2009-02-02T06:00:00Z,28.4073,-96.7122,0.0,3.1,207.0,3.3,'11111222,11111222,11111222' 
TCOON,ioos:station:TCOON:031:1,2009-02-02T07:00:00Z,28.4073,-96.7122,0.0,2.8,221.0,3.2,'11111222,11111222,11111222' 
TCOON,ioos:station:TCOON:031:1,2009-02-02T08:00:00Z,28.4073,-96.7122,0.0,7.3,280.0,8.0,'11111222,11111222,11111222' 
TCOON,ioos:station:TCOON:031:1,2009-02-02T09:00:00Z,28.4073,-96.7122,0.0,7.0,307.0,11.3,'11111222,11111222,11111222' 
TCOON,ioos:station:TCOON:031:1,2009-02-02T10:00:00Z,28.4073,-96.7122,0.0,5.9,312.0,8.6,'11111222,11111222,11111222' 
TCOON,ioos:station:TCOON:031:1,2009-02-02T11:00:00Z,28.4073,-96.7122,0.0,3.8,316.0,5.8,'11111222,11111222,11111222' 
TCOON,ioos:station:TCOON:031:1,2009-02-02T12:00:00Z,28.4073,-96.7122,0.0,3.3,321.0,4.5,'11111222,11111222,11111222' 
TCOON,ioos:station:TCOON:031:1,2009-02-02T13:00:00Z,28.4073,-96.7122,0.0,4.2,324.0,6.1,'11111222,11111222,11111222' 
TCOON,ioos:station:TCOON:031:1,2009-02-02T14:00:00Z,28.4073,-96.7122,0.0,4.6,310.0,6.5,'11111222,11111222,11111222' 
TCOON,ioos:station:TCOON:031:1,2009-02-02T15:00:00Z,28.4073,-96.7122,0.0,7.1,323.0,9.9,'11111222,11111222,11111222' 
TCOON,ioos:station:TCOON:031:1,2009-02-02T16:00:00Z,28.4073,-96.7122,0.0,7.1,324.0,11.1,'11111222,11111222,11111222' 
TCOON,ioos:station:TCOON:031:1,2009-02-02T17:00:00Z,28.4073,-96.7122,0.0,7.2,12.0,11.0,'11111222,11111222,11111222' 
TCOON,ioos:station:TCOON:031:1,2009-02-02T18:00:00Z,28.4073,-96.7122,0.0,6.5,18.0,10.1,'11111222,11111222,11111222' 
TCOON,ioos:station:TCOON:031:1,2009-02-02T19:00:00Z,28.4073,-96.7122,0.0,6.8,25.0,12.6,'11111222,11111222,11111222' 
TCOON,ioos:station:TCOON:031:1,2009-02-02T20:00:00Z,28.4073,-96.7122,0.0,8.1,30.0,11.8,'11111222,11111222,11111222' 
TCOON,ioos:station:TCOON:031:1,2009-02-02T21:00:00Z,28.4073,-96.7122,0.0,6.8,30.0,10.1,'11111222,11111222,11111222' 
TCOON,ioos:station:TCOON:031:1,2009-02-02T22:00:00Z,28.4073,-96.7122,0.0,6.0,4.0,9.6,'11111222,11111222,11111222' 
TCOON,ioos:station:TCOON:031:1,2009-02-02T23:00:00Z,28.4073,-96.7122,0.0,6.7,24.0,8.4,'11111222,11111222,11111222' 
TCOON,ioos:station:TCOON:031:1,2009-02-03T00:00:00Z,28.4073,-96.7122,0.0,3.2,28.0,4.8,'11111222,11111222,11111222' 
TCOON,ioos:station:TCOON:031:1,2009-02-03T01:00:00Z,28.4073,-96.7122,0.0,1.8,23.0,3.1,'11111222,11111222,11111222' 
TCOON,ioos:station:TCOON:031:1,2009-02-03T02:00:00Z,28.4073,-96.7122,0.0,2.7,344.0,3.8,'11111222,11111222,11111222' 
TCOON,ioos:station:TCOON:031:1,2009-02-03T03:00:00Z,28.4073,-96.7122,0.0,1.8,350.0,2.7,'11111222,11111222,11111222' 
TCOON,ioos:station:TCOON:031:1,2009-02-03T04:00:00Z,28.4073,-96.7122,0.0,2.0,349.0,2.6,'11111222,11111222,11111222' 
TCOON,ioos:station:TCOON:031:1,2009-02-03T05:00:00Z,28.4073,-96.7122,0.0,2.5,14.0,3.1,'11111222,11111222,11111222' 
TCOON,ioos:station:TCOON:031:1,2009-02-03T06:00:00Z,28.4073,-96.7122,0.0,2.1,348.0,2.6,'11111222,11111222,11111222' 
TCOON,ioos:station:TCOON:031:1,2009-02-03T07:00:00Z,28.4073,-96.7122,0.0,2.0,7.0,2.3,'11111222,11111222,11111222' 
TCOON,ioos:station:TCOON:031:1,2009-02-03T08:00:00Z,28.4073,-96.7122,0.0,1.8,23.0,1.8,'11111222,11111222,11111222' 
TCOON,ioos:station:TCOON:031:1,2009-02-03T09:00:00Z,28.4073,-96.7122,0.0,1.6,49.0,1.9,'11111222,11111222,11111222' 
TCOON,ioos:station:TCOON:031:1,2009-02-03T10:00:00Z,28.4073,-96.7122,0.0,3.0,49.0,3.4,'11111222,11111222,11111222' 
TCOON,ioos:station:TCOON:031:1,2009-02-03T11:00:00Z,28.4073,-96.7122,0.0,2.6,46.0,3.2,'11111222,11111222,11111222' 
TCOON,ioos:station:TCOON:031:1,2009-02-03T12:00:00Z,28.4073,-96.7122,0.0,1.2,47.0,1.4,'11111222,11111222,11111222' 
TCOON,ioos:station:TCOON:031:1,2009-02-03T13:00:00Z,28.4073,-96.7122,0.0,1.7,38.0,1.9,'11111222,11111222,11111222' 
TCOON,ioos:station:TCOON:031:1,2009-02-03T14:00:00Z,28.4073,-96.7122,0.0,0.6,36.0,1.1,'11111222,11111222,11111222' 
TCOON,ioos:station:TCOON:031:1,2009-02-03T15:00:00Z,28.4073,-96.7122,0.0,0.4,5.0,1.0,'11111222,11111222,11111222' 
TCOON,ioos:station:TCOON:031:1,2009-02-03T16:00:00Z,28.4073,-96.7122,0.0,2.2,244.0,2.5,'11111222,11111222,11111222' 
TCOON,ioos:station:TCOON:031:1,2009-02-03T17:00:00Z,28.4073,-96.7122,0.0,0.0,206.0,0.8,'11111222,11111222,11111222' 
TCOON,ioos:station:TCOON:031:1,2009-02-03T18:00:00Z,28.4073,-96.7122,0.0,3.2,135.0,3.5,'11111222,11111222,11111222' 
TCOON,ioos:station:TCOON:031:1,2009-02-03T19:00:00Z,28.4073,-96.7122,0.0,4.2,126.0,5.3,'11111222,11111222,11111222' 
TCOON,ioos:station:TCOON:031:1,2009-02-03T20:00:00Z,28.4073,-96.7122,0.0,5.4,125.0,6.1,'11111222,11111222,11111222' 
TCOON,ioos:station:TCOON:031:1,2009-02-03T21:00:00Z,28.4073,-96.7122,0.0,5.4,124.0,5.9,'11111222,11111222,11111222' 
TCOON,ioos:station:TCOON:031:1,2009-02-03T22:00:00Z,28.4073,-96.7122,0.0,6.1,119.0,7.2,'11111222,11111222,11111222' 
TCOON,ioos:station:TCOON:031:1,2009-02-03T23:00:00Z,28.4073,-96.7122,0.0,6.6,120.0,7.3,'11111222,11111222,11111222' 
TCOON,ioos:station:TCOON:031:1,2009-02-04T00:00:00Z,28.4073,-96.7122,0.0,4.4,115.0,5.2,'11111222,11111222,11111222' 
TCOON,ioos:station:TCOON:031:1,2009-02-04T01:00:00Z,28.4073,-96.7122,0.0,3.7,111.0,4.2,'11111222,11111222,11111222' 
TCOON,ioos:station:TCOON:031:1,2009-02-04T02:00:00Z,28.4073,-96.7122,0.0,3.9,121.0,4.4,'11111222,11111222,11111222' 
TCOON,ioos:station:TCOON:031:1,2009-02-04T03:00:00Z,28.4073,-96.7122,0.0,2.4,114.0,2.8,'11111222,11111222,11111222' 
TCOON,ioos:station:TCOON:031:1,2009-02-04T04:00:00Z,28.4073,-96.7122,0.0,1.7,105.0,2.2,'11111222,11111222,11111222' 
TCOON,ioos:station:TCOON:031:1,2009-02-04T05:00:00Z,28.4073,-96.7122,0.0,1.5,91.0,1.7,'11111222,11111222,11111222' 
TCOON,ioos:station:TCOON:031:1,2009-02-04T06:00:00Z,28.4073,-96.7122,0.0,0.6,93.0,0.8,'11111222,11111222,11111222' 
TCOON,ioos:station:TCOON:031:1,2009-02-04T07:00:00Z,28.4073,-96.7122,0.0,0.4,70.0,0.7,'11111222,11111222,11111222' 
TCOON,ioos:station:TCOON:031:1,2009-02-04T08:00:00Z,28.4073,-96.7122,0.0,1.8,322.0,1.9,'11111222,11111222,11111222' 
TCOON,ioos:station:TCOON:031:1,2009-02-04T09:00:00Z,28.4073,-96.7122,0.0,3.4,349.0,5.9,'11111222,11111222,11111222' 
TCOON,ioos:station:TCOON:031:1,2009-02-04T10:00:00Z,28.4073,-96.7122,0.0,3.2,349.0,4.1,'11111222,11111222,11111222' 
TCOON,ioos:station:TCOON:031:1,2009-02-04T11:00:00Z,28.4073,-96.7122,0.0,3.4,357.0,4.3,'11111222,11111222,11111222' 
TCOON,ioos:station:TCOON:031:1,2009-02-04T12:00:00Z,28.4073,-96.7122,0.0,3.5,347.0,4.4,'11111222,11111222,11111222' 
TCOON,ioos:station:TCOON:031:1,2009-02-04T13:00:00Z,28.4073,-96.7122,0.0,3.1,352.0,3.9,'11111222,11111222,11111222' 
TCOON,ioos:station:TCOON:031:1,2009-02-04T14:00:00Z,28.4073,-96.7122,0.0,4.0,351.0,5.1,'11111222,11111222,11111222' 
TCOON,ioos:station:TCOON:031:1,2009-02-04T15:00:00Z,28.4073,-96.7122,0.0,3.6,24.0,6.3,'11111222,11111222,11111222' 
TCOON,ioos:station:TCOON:031:1,2009-02-04T16:00:00Z,28.4073,-96.7122,0.0,3.5,44.0,6.6,'11111222,11111222,11111222' 
TCOON,ioos:station:TCOON:031:1,2009-02-04T17:00:00Z,28.4073,-96.7122,0.0,3.7,51.0,5.9,'11111222,11111222,11111222' 
TCOON,ioos:station:TCOON:031:1,2009-02-04T18:00:00Z,28.4073,-96.7122,0.0,3.5,38.0,4.3,'11111222,11111222,11111222' 
TCOON,ioos:station:TCOON:031:1,2009-02-04T19:00:00Z,28.4073,-96.7122,0.0,5.9,91.0,8.1,'11111222,11111222,11111222' 
TCOON,ioos:station:TCOON:031:1,2009-02-04T20:00:00Z,28.4073,-96.7122,0.0,7.3,89.0,9.0,'11111222,11111222,11111222' 
TCOON,ioos:station:TCOON:031:1,2009-02-04T21:00:00Z,28.4073,-96.7122,0.0,7.1,88.0,9.1,'11111222,11111222,11111222' 
TCOON,ioos:station:TCOON:031:1,2009-02-04T22:00:00Z,28.4073,-96.7122,0.0,7.2,79.0,8.8,'11111222,11111222,11111222' 
TCOON,ioos:station:TCOON:031:1,2009-02-04T23:00:00Z,28.4073,-96.7122,0.0,6.2,79.0,9.2,'11111222,11111222,11111222' 
TCOON,ioos:station:TCOON:031:1,2009-02-05T00:00:00Z,28.4073,-96.7122,0.0,5.6,71.0,9.1,'11111222,11111222,11111222' 
TCOON,ioos:station:TCOON:031:1,2009-02-05T01:00:00Z,28.4073,-96.7122,0.0,5.1,60.0,6.8,'11111222,11111222,11111222' 
TCOON,ioos:station:TCOON:031:1,2009-02-05T02:00:00Z,28.4073,-96.7122,0.0,4.2,59.0,5.2,'11111222,11111222,11111222' 
TCOON,ioos:station:TCOON:031:1,2009-02-05T03:00:00Z,28.4073,-96.7122,0.0,3.7,66.0,5.2,'11111222,11111222,11111222' 
TCOON,ioos:station:TCOON:031:1,2009-02-05T04:00:00Z,28.4073,-96.7122,0.0,2.5,69.0,3.9,'11111222,11111222,11111222' 
TCOON,ioos:station:TCOON:031:1,2009-02-05T05:00:00Z,28.4073,-96.7122,0.0,3.1,81.0,4.0,'11111222,11111222,11111222' 
TCOON,ioos:station:TCOON:031:1,2009-02-05T06:00:00Z,28.4073,-96.7122,0.0,2.9,79.0,3.7,'11111222,11111222,11111222' 
TCOON,ioos:station:TCOON:031:1,2009-02-05T07:00:00Z,28.4073,-96.7122,0.0,2.0,76.0,3.1,'11111222,11111222,11111222' 
TCOON,ioos:station:TCOON:031:1,2009-02-05T08:00:00Z,28.4073,-96.7122,0.0,2.6,66.0,3.4,'11111222,11111222,11111222' 
TCOON,ioos:station:TCOON:031:1,2009-02-05T09:00:00Z,28.4073,-96.7122,0.0,2.1,75.0,3.6,'11111222,11111222,11111222' 
TCOON,ioos:station:TCOON:031:1,2009-02-05T10:00:00Z,28.4073,-96.7122,0.0,2.4,68.0,3.0,'11111222,11111222,11111222' 
TCOON,ioos:station:TCOON:031:1,2009-02-05T11:00:00Z,28.4073,-96.7122,0.0,2.5,62.0,2.8,'11111222,11111222,11111222' 
TCOON,ioos:station:TCOON:031:1,2009-02-05T12:00:00Z,28.4073,-96.7122,0.0,2.9,65.0,3.3,'11111222,11111222,11111222' 
TCOON,ioos:station:TCOON:031:1,2009-02-05T13:00:00Z,28.4073,-96.7122,0.0,2.9,65.0,3.3,'11111222,11111222,11111222' 
TCOON,ioos:station:TCOON:031:1,2009-02-05T14:00:00Z,28.4073,-96.7122,0.0,2.5,76.0,3.4,'11111222,11111222,11111222' 
TCOON,ioos:station:TCOON:031:1,2009-02-05T15:00:00Z,28.4073,-96.7122,0.0,4.0,97.0,5.0,'11111222,11111222,11111222' 
TCOON,ioos:station:TCOON:031:1,2009-02-05T16:00:00Z,28.4073,-96.7122,0.0,6.8,100.0,8.5,'11111222,11111222,11111222' 
TCOON,ioos:station:TCOON:031:1,2009-02-05T17:00:00Z,28.4073,-96.7122,0.0,6.4,110.0,8.4,'11111222,11111222,11111222' 
TCOON,ioos:station:TCOON:031:1,2009-02-05T18:00:00Z,28.4073,-96.7122,0.0,6.2,103.0,8.1,'11111222,11111222,11111222' 
TCOON,ioos:station:TCOON:031:1,2009-02-05T19:00:00Z,28.4073,-96.7122,0.0,6.3,114.0,8.2,'11111222,11111222,11111222' 
TCOON,ioos:station:TCOON:031:1,2009-02-05T20:00:00Z,28.4073,-96.7122,0.0,8.1,112.0,9.7,'11111222,11111222,11111222' 
TCOON,ioos:station:TCOON:031:1,2009-02-05T21:00:00Z,28.4073,-96.7122,0.0,7.4,118.0,9.6,'11111222,11111222,11111222' 
TCOON,ioos:station:TCOON:031:1,2009-02-05T22:00:00Z,28.4073,-96.7122,0.0,7.9,119.0,9.7,'11111222,11111222,11111222' 
TCOON,ioos:station:TCOON:031:1,2009-02-05T23:00:00Z,28.4073,-96.7122,0.0,7.4,116.0,10.9,'11111222,11111222,11111222' 
TCOON,ioos:station:TCOON:031:1,2009-02-06T00:00:00Z,28.4073,-96.7122,0.0,3.7,111.0,6.4,'11111222,11111222,11111222' 
TCOON,ioos:station:TCOON:031:1,2009-02-06T01:00:00Z,28.4073,-96.7122,0.0,4.5,109.0,5.7,'11111222,11111222,11111222' 
TCOON,ioos:station:TCOON:031:1,2009-02-06T02:00:00Z,28.4073,-96.7122,0.0,4.0,110.0,5.0,'11111222,11111222,11111222' 
TCOON,ioos:station:TCOON:031:1,2009-02-06T03:00:00Z,28.4073,-96.7122,0.0,5.2,113.0,6.3,'11111222,11111222,11111222' 
TCOON,ioos:station:TCOON:031:1,2009-02-06T04:00:00Z,28.4073,-96.7122,0.0,5.4,117.0,7.2,'11111222,11111222,11111222' 
TCOON,ioos:station:TCOON:031:1,2009-02-06T05:00:00Z,28.4073,-96.7122,0.0,5.8,117.0,6.7,'11111222,11111222,11111222' 
TCOON,ioos:station:TCOON:031:1,2009-02-06T06:00:00Z,28.4073,-96.7122,0.0,5.8,116.0,7.0,'11111222,11111222,11111222' 
TCOON,ioos:station:TCOON:031:1,2009-02-06T07:00:00Z,28.4073,-96.7122,0.0,5.4,120.0,6.8,'11111222,11111222,11111222' 
TCOON,ioos:station:TCOON:031:1,2009-02-06T08:00:00Z,28.4073,-96.7122,0.0,5.9,119.0,7.0,'11111222,11111222,11111222' 
TCOON,ioos:station:TCOON:031:1,2009-02-06T09:00:00Z,28.4073,-96.7122,0.0,5.5,120.0,7.0,'11111222,11111222,11111222' 
TCOON,ioos:station:TCOON:031:1,2009-02-06T10:00:00Z,28.4073,-96.7122,0.0,5.6,123.0,6.1,'11111222,11111222,11111222' 
TCOON,ioos:station:TCOON:031:1,2009-02-06T11:00:00Z,28.4073,-96.7122,0.0,6.1,119.0,7.1,'11111222,11111222,11111222' 
TCOON,ioos:station:TCOON:031:1,2009-02-06T12:00:00Z,28.4073,-96.7122,0.0,5.2,123.0,6.8,'11111222,11111222,11111222' 
TCOON,ioos:station:TCOON:031:1,2009-02-06T13:00:00Z,28.4073,-96.7122,0.0,5.1,122.0,5.9,'11111222,11111222,11111222' 
TCOON,ioos:station:TCOON:031:1,2009-02-06T14:00:00Z,28.4073,-96.7122,0.0,5.1,126.0,6.0,'11111222,11111222,11111222' 
TCOON,ioos:station:TCOON:031:1,2009-02-06T15:00:00Z,28.4073,-96.7122,0.0,7.8,130.0,8.6,'11111222,11111222,11111222' 
TCOON,ioos:station:TCOON:031:1,2009-02-06T16:00:00Z,28.4073,-96.7122,0.0,7.2,136.0,9.2,'11111222,11111222,11111222' 
TCOON,ioos:station:TCOON:031:1,2009-02-06T17:00:00Z,28.4073,-96.7122,0.0,7.5,140.0,8.6,'11111222,11111222,11111222' 
TCOON,ioos:station:TCOON:031:1,2009-02-06T18:00:00Z,28.4073,-96.7122,0.0,7.7,142.0,9.7,'11111222,11111222,11111222' 
TCOON,ioos:station:TCOON:031:1,2009-02-06T19:00:00Z,28.4073,-96.7122,0.0,10.1,126.0,11.8,'11111222,11111222,11111222' 
TCOON,ioos:station:TCOON:031:1,2009-02-06T20:00:00Z,28.4073,-96.7122,0.0,9.1,127.0,11.7,'11111222,11111222,11111222' 
TCOON,ioos:station:TCOON:031:1,2009-02-06T21:00:00Z,28.4073,-96.7122,0.0,11.4,122.0,14.2,'11111222,11111222,11111222' 
TCOON,ioos:station:TCOON:031:1,2009-02-06T22:00:00Z,28.4073,-96.7122,0.0,9.8,130.0,12.4,'11111222,11111222,11111222' 
TCOON,ioos:station:TCOON:031:1,2009-02-06T23:00:00Z,28.4073,-96.7122,0.0,7.5,122.0,9.9,'11111222,11111222,11111222' 
TCOON,ioos:station:TCOON:031:1,2009-02-07T00:00:00Z,28.4073,-96.7122,0.0,8.5,121.0,10.3,'11111222,11111222,11111222' 
TCOON,ioos:station:TCOON:031:1,2009-02-07T01:00:00Z,28.4073,-96.7122,0.0,8.5,119.0,10.7,'11111222,11111222,11111222' 
TCOON,ioos:station:TCOON:031:1,2009-02-07T02:00:00Z,28.4073,-96.7122,0.0,7.1,120.0,9.8,'11111222,11111222,11111222' 
TCOON,ioos:station:TCOON:031:1,2009-02-07T03:00:00Z,28.4073,-96.7122,0.0,7.5,120.0,9.5,'11111222,11111222,11111222' 
TCOON,ioos:station:TCOON:031:1,2009-02-07T04:00:00Z,28.4073,-96.7122,0.0,7.5,116.0,9.0,'11111222,11111222,11111222' 
TCOON,ioos:station:TCOON:031:1,2009-02-07T05:00:00Z,28.4073,-96.7122,0.0,7.3,118.0,8.9,'11111222,11111222,11111222' 
TCOON,ioos:station:TCOON:031:1,2009-02-07T06:00:00Z,28.4073,-96.7122,0.0,7.4,115.0,9.0,'11111222,11111222,11111222' 
TCOON,ioos:station:TCOON:031:1,2009-02-07T07:00:00Z,28.4073,-96.7122,0.0,7.4,116.0,9.6,'11111222,11111222,11111222' 
TCOON,ioos:station:TCOON:031:1,2009-02-07T08:00:00Z,28.4073,-96.7122,0.0,7.7,115.0,8.9,'11111222,11111222,11111222' 
TCOON,ioos:station:TCOON:031:1,2009-02-07T09:00:00Z,28.4073,-96.7122,0.0,6.2,122.0,8.3,'11111222,11111222,11111222' 
TCOON,ioos:station:TCOON:031:1,2009-02-07T10:00:00Z,28.4073,-96.7122,0.0,5.5,121.0,6.6,'11111222,11111222,11111222' 
TCOON,ioos:station:TCOON:031:1,2009-02-07T11:00:00Z,28.4073,-96.7122,0.0,5.1,130.0,6.2,'11111222,11111222,11111222' 
TCOON,ioos:station:TCOON:031:1,2009-02-07T12:00:00Z,28.4073,-96.7122,0.0,6.6,113.0,8.0,'11111222,11111222,11111222' 
TCOON,ioos:station:TCOON:031:1,2009-02-07T13:00:00Z,28.4073,-96.7122,0.0,7.1,119.0,8.2,'11111222,11111222,11111222' 
TCOON,ioos:station:TCOON:031:1,2009-02-07T14:00:00Z,28.4073,-96.7122,0.0,7.3,116.0,8.4,'11111222,11111222,11111222' 
TCOON,ioos:station:TCOON:031:1,2009-02-07T15:00:00Z,28.4073,-96.7122,0.0,8.9,127.0,11.9,'11111222,11111222,11111222' 
TCOON,ioos:station:TCOON:031:1,2009-02-07T16:00:00Z,28.4073,-96.7122,0.0,10.3,128.0,12.8,'11111222,11111222,11111222' 
TCOON,ioos:station:TCOON:031:1,2009-02-07T17:00:00Z,28.4073,-96.7122,0.0,8.8,131.0,11.4,'11111222,11111222,11111222' 
TCOON,ioos:station:TCOON:031:1,2009-02-07T18:00:00Z,28.4073,-96.7122,0.0,10.7,127.0,12.1,'11111222,11111222,11111222' 
TCOON,ioos:station:TCOON:031:1,2009-02-07T19:00:00Z,28.4073,-96.7122,0.0,10.8,135.0,12.9,'11111222,11111222,11111222' 
TCOON,ioos:station:TCOON:031:1,2009-02-07T20:00:00Z,28.4073,-96.7122,0.0,8.8,138.0,12.0,'11111222,11111222,11111222' 
TCOON,ioos:station:TCOON:031:1,2009-02-07T21:00:00Z,28.4073,-96.7122,0.0,10.0,131.0,11.9,'11111222,11111222,11111222' 
TCOON,ioos:station:TCOON:031:1,2009-02-07T22:00:00Z,28.4073,-96.7122,0.0,8.4,128.0,9.9,'11111222,11111222,11111222' 
TCOON,ioos:station:TCOON:031:1,2009-02-07T23:00:00Z,28.4073,-96.7122,0.0,6.9,127.0,8.8,'11111222,11111222,11111222' 
TCOON,ioos:station:TCOON:031:1,2009-02-08T00:00:00Z,28.4073,-96.7122,0.0,5.0,109.0,6.6,'11111222,11111222,11111222' 
TCOON,ioos:station:TCOON:031:1,2009-02-08T01:00:00Z,28.4073,-96.7122,0.0,4.8,106.0,6.4,'11111222,11111222,11111222' 
TCOON,ioos:station:TCOON:031:1,2009-02-08T02:00:00Z,28.4073,-96.7122,0.0,5.3,108.0,6.8,'11111222,11111222,11111222' 
TCOON,ioos:station:TCOON:031:1,2009-02-08T03:00:00Z,28.4073,-96.7122,0.0,5.0,110.0,7.5,'11111222,11111222,11111222' 
TCOON,ioos:station:TCOON:031:1,2009-02-08T04:00:00Z,28.4073,-96.7122,0.0,6.2,109.0,8.3,'11111222,11111222,11111222' 
TCOON,ioos:station:TCOON:031:1,2009-02-08T05:00:00Z,28.4073,-96.7122,0.0,5.5,115.0,6.6,'11111222,11111222,11111222' 
TCOON,ioos:station:TCOON:031:1,2009-02-08T06:00:00Z,28.4073,-96.7122,0.0,4.7,115.0,5.5,'11111222,11111222,11111222' 
TCOON,ioos:station:TCOON:031:1,2009-02-08T07:00:00Z,28.4073,-96.7122,0.0,4.3,106.0,5.6,'11111222,11111222,11111222' 
TCOON,ioos:station:TCOON:031:1,2009-02-08T08:00:00Z,28.4073,-96.7122,0.0,4.6,114.0,5.4,'11111222,11111222,11111222' 
TCOON,ioos:station:TCOON:031:1,2009-02-08T09:00:00Z,28.4073,-96.7122,0.0,5.0,117.0,6.3,'11111222,11111222,11111222' 
TCOON,ioos:station:TCOON:031:1,2009-02-08T10:00:00Z,28.4073,-96.7122,0.0,4.4,118.0,5.5,'11111222,11111222,11111222' 
TCOON,ioos:station:TCOON:031:1,2009-02-08T11:00:00Z,28.4073,-96.7122,0.0,3.6,99.0,4.4,'11111222,11111222,11111222' 
TCOON,ioos:station:TCOON:031:1,2009-02-08T12:00:00Z,28.4073,-96.7122,0.0,6.0,111.0,6.9,'11111222,11111222,11111222' 
TCOON,ioos:station:TCOON:031:1,2009-02-08T13:00:00Z,28.4073,-96.7122,0.0,5.2,104.0,6.6,'11111222,11111222,11111222' 
TCOON,ioos:station:TCOON:031:1,2009-02-08T14:00:00Z,28.4073,-96.7122,0.0,5.1,109.0,6.9,'11111222,11111222,11111222' 
TCOON,ioos:station:TCOON:031:1,2009-02-08T15:00:00Z,28.4073,-96.7122,0.0,6.9,105.0,9.0,'11111222,11111222,11111222' 
TCOON,ioos:station:TCOON:031:1,2009-02-08T16:00:00Z,28.4073,-96.7122,0.0,8.5,113.0,10.0,'11111222,11111222,11111222' 
TCOON,ioos:station:TCOON:031:1,2009-02-08T17:00:00Z,28.4073,-96.7122,0.0,8.7,109.0,10.8,'11111222,11111222,11111222' 
TCOON,ioos:station:TCOON:031:1,2009-02-08T18:00:00Z,28.4073,-96.7122,0.0,8.1,110.0,12.4,'11111222,11111222,11111222' 
TCOON,ioos:station:TCOON:031:1,2009-02-08T19:00:00Z,28.4073,-96.7122,0.0,8.3,105.0,11.2,'11111222,11111222,11111222' 
TCOON,ioos:station:TCOON:031:1,2009-02-08T20:00:00Z,28.4073,-96.7122,0.0,10.4,117.0,12.2,'11111222,11111222,11111222' 
TCOON,ioos:station:TCOON:031:1,2009-02-08T21:00:00Z,28.4073,-96.7122,0.0,8.2,104.0,11.7,'11111222,11111222,11111222' 
TCOON,ioos:station:TCOON:031:1,2009-02-08T22:00:00Z,28.4073,-96.7122,0.0,8.1,106.0,13.3,'11111222,11111222,11111222' 
TCOON,ioos:station:TCOON:031:1,2009-02-08T23:00:00Z,28.4073,-96.7122,0.0,8.3,106.0,11.8,'11111222,11111222,11111222' 
TCOON,ioos:station:TCOON:031:1,2009-02-09T00:00:00Z,28.4073,-96.7122,0.0,7.0,103.0,9.4,'11111222,11111222,11111222' 
TCOON,ioos:station:TCOON:031:1,2009-02-09T01:00:00Z,28.4073,-96.7122,0.0,6.9,104.0,8.9,'11111222,11111222,11111222' 
TCOON,ioos:station:TCOON:031:1,2009-02-09T02:00:00Z,28.4073,-96.7122,0.0,7.4,103.0,9.6,'11111222,11111222,11111222' 
TCOON,ioos:station:TCOON:031:1,2009-02-09T03:00:00Z,28.4073,-96.7122,0.0,9.0,102.0,11.8,'11111222,11111222,11111222' 
TCOON,ioos:station:TCOON:031:1,2009-02-09T04:00:00Z,28.4073,-96.7122,0.0,8.3,110.0,10.1,'11111222,11111222,11111222' 
TCOON,ioos:station:TCOON:031:1,2009-02-09T05:00:00Z,28.4073,-96.7122,0.0,6.9,111.0,10.2,'11111222,11111222,11111222' 
TCOON,ioos:station:TCOON:031:1,2009-02-09T06:00:00Z,28.4073,-96.7122,0.0,6.7,109.0,9.5,'11111222,11111222,11111222' 
TCOON,ioos:station:TCOON:031:1,2009-02-09T07:00:00Z,28.4073,-96.7122,0.0,8.8,114.0,10.6,'11111222,11111222,11111222' 
TCOON,ioos:station:TCOON:031:1,2009-02-09T08:00:00Z,28.4073,-96.7122,0.0,9.2,111.0,12.1,'11111222,11111222,11111222' 
TCOON,ioos:station:TCOON:031:1,2009-02-09T09:00:00Z,28.4073,-96.7122,0.0,8.5,112.0,11.2,'11111222,11111222,11111222' 
TCOON,ioos:station:TCOON:031:1,2009-02-09T10:00:00Z,28.4073,-96.7122,0.0,9.0,115.0,10.7,'11111222,11111222,11111222' 
TCOON,ioos:station:TCOON:031:1,2009-02-09T11:00:00Z,28.4073,-96.7122,0.0,6.8,126.0,8.5,'11111222,11111222,11111222' 
TCOON,ioos:station:TCOON:031:1,2009-02-09T12:00:00Z,28.4073,-96.7122,0.0,5.3,127.0,7.1,'11111222,11111222,11111222' 